Location: Feigenhofen
(48.4939°N, 10.7793°E)
Time: 04:14:28
(UTC+00:00)

Cosmos 2074 Rocket - Pass Details

Date: 26 May 2022
Orbit: 968 x 985 km, 82.9° (Epoch: 24 June)

Event Time Altitude Azimuth Distance (km) Brightness Sun altitude
Rises 01:19:41 0° 349° (NNW) 3,700 7.8 -14.9°
Reaches altitude 10° 01:22:12 10° 347° (NNW) 2,750 7.0 -14.7°
Maximum altitude 01:28:29 72° 265° (W) 1,036 4.0 -14.2°
Enters shadow 01:34:00 14° 183° (S) 2,469 5.6 -13.7°
